Probability
55 61 52 39 13 3 3 0 0 0 0 13 13 26 29 32 19 13 32 77 90 94 100 100 100 100 100 100 100 100 100 100 100 100 100 100 100 100 100 100 100 100 100 97 97 97 97 97 97
48 48 45 23 10 0 0 3 6 3 0 3 19 32 45 55 55 71 81 90 94 94 97 97 100 100 100 100 100 100 100 100 100 100 100 100 100 100 100 100 100 100 100 97 94 94 90 100 97
39 39 16 16 6 3 0 3 3 10 10 10 29 39 52 68 71 74 87 94 97 97 97 97 100 100 100 100 100 100 100 100 100 100 100 100 100 100 100 100 100 100 97 97 94 90 90 97 100
13 19 10 16 3 3 10 6 3 13 19 39 52 48 68 81 87 81 90 94 94 97 97 97 100 97 97 100 100 100 100 100 100 100 100 100 100 100 100 100 100 97 94 90 94 94 94 90 94
3 6 3 0 0 3 6 6 6 16 32 48 48 61 74 74 84 84 87 90 90 97 97 97 97 97 97 100 100 100 100 100 100 100 100 100 100 100 100 100 100 97 97 90 90 90 90 84 90
3 0 0 0 3 3 3 10 10 16 39 32 45 65 71 84 87 87 87 90 90 97 97 94 97 94 97 100 100 100 100 100 100 100 100 100 100 100 100 94 97 97 90 87 87 87 87 87 87
3 0 0 0 3 3 6 6 13 23 26 32 48 58 65 81 87 87 90 90 90 97 97 94 94 94 94 100 97 100 100 100 100 100 100 100 100 100 100 100 97 94 94 94 94 87 90 94 94
3 0 0 0 3 3 3 13 19 26 42 39 45 61 65 71 77 87 90 87 90 94 90 94 94 94 94 97 97 100 100 100 100 100 100 100 100 100 100 100 100 100 94 90 84 87 94 97 94
0 0 0 0 3 3 3 13 23 29 39 52 55 55 68 74 77 84 87 87 84 84 87 90 90 94 94 94 97 97 97 100 100 100 100 100 97 94 97 100 100 100 100 94 94 94 94 94 94
0 0 0 0 3 3 10 13 16 29 32 39 61 68 71 71 77 84 81 84 84 84 84 90 90 90 90 94 90 94 97 97 97 97 90 81 74 81 90 94 97 97 100 90 97 100 100 84 68
0 0 0 0 3 3 13 10 23 23 23 26 55 68 71 68 71 65 74 77 84 81 84 87 87 87 87 84 81 74 81 81 74 71 68 61 52 58 71 65 77 74 77 71 81 71 61 55 45
0 0 3 3 3 6 10 23 23 26 23 35 45 61 68 61 61 48 45 55 71 74 74 74 77 77 77 65 71 65 65 61 58 61 52 45 42 45 45 52 58 65 58 55 42 35 35 39 35
0 3 3 3 6 13 23 26 26 26 32 39 48 55 52 48 42 42 35 39 52 65 65 61 68 68 61 61 52 52 48 42 48 48 48 32 23 26 23 19 23 16 19 26 26 23 13 16 19
3 3 3 3 10 13 26 26 23 26 32 35 48 45 48 42 45 35 35 35 32 45 58 58 61 48 52 48 45 35 39 19 26 29 29 23 16 16 10 10 10 6 3 10 13 13 10 3 6
0 3 3 3 3 6 10 16 26 26 32 45 39 39 42 29 32 29 29 29 32 45 48 52 39 42 39 26 26 23 16 16 13 16 13 19 16 6 6 6 6 0 0 0 0 0 0 0 0
0 0 0 0 0 0 0 0 13 16 19 16 23 26 26 29 23 23 32 29 35 35 42 45 48 29 23 19 13 6 13 6 6 6 6 3 3 6 6 3 3 3 0 0 0 0 0 0 0
0 0 0 0 0 0 0 0 6 16 19 19 16 16 26 23 23 19 23 39 29 32 32 35 29 16 10 10 6 10 10 6 3 3 0 0 0 3 3 3 3 0 0 0 0 0 0 0 0
0 0 0 0 0 0 0 0 10 16 23 16 16 13 16 13 16 19 19 35 23 23 19 16 13 13 3 3 0 0 0 0 0 0 0 0 0 0 0 0 0 0 0 0 0 0 0 0 0
0 0 0 0 0 0 0 3 10 10 13 13 10 6 10 13 16 23 10 16 23 19 13 10 10 10 3 3 3 3 0 0 0 0 0 0 0 0 0 0 0 0 0 0 0 0 0 0 0
0 0 0 0 0 0 0 0 3 10 10 13 6 3 6 13 13 16 13 10 13 13 6 6 6 6 6 3 3 0 0 0 0 0 0 0 0 0 0 0 0 0 0 0 0 0 0 0 0
0 0 0 0 0 0 0 0 0 3 6 6 3 3 3 13 13 13 10 6 13 13 13 10 6 6 3 0 0 0 0 0 0 0 0 0 0 0 0 0 0 0 0 0 0 0 0 0 0
0 0 0 0 0 0 0 0 0 0 0 0 3 3 3 3 16 10 10 10 10 10 6 10 6 3 0 0 0 0 0 0 0 0 0 0 0 0 0 0 0 0 0 0 0 0 0 0 0
0 0 0 0 0 0 0 0 0 0 0 0 0 3 3 6 13 10 10 10 10 6 6 6 3 3 0 0 0 0 0 0 0 0 0 0 0 0 0 0 0 0 0 0 0 0 0 0 0
0 0 0 0 0 0 0 0 0 0 0 0 3 3 6 10 10 3 6 10 10 6 6 6 3 0 0 0 0 0 0 0 0 0 0 0 0 0 0 0 0 0 0 0 0 0 0 0 0
0 0 0 0 0 0 0 0 0 0 0 0 0 3 3 10 6 3 6 3 6 10 10 6 6 0 0 0 0 0 0 0 0 0 0 0 0 0 0 0 0 0 0 0 0 0 0 0 0
0 0 0 0 0 0 0 0 0 0 0 0 0 3 6 6 3 3 6 6 6 13 10 6 6 3 0 0 0 0 0 0 0 0 0 0 0 0 0 0 0 0 0 0 0 0 0 0 0
0 0 0 0 0 0 0 0 0 0 0 0 0 3 6 6 3 3 3 3 3 10 3 6 6 3 0 0 0 0 0 0 0 0 0 0 0 0 0 0 0 0 0 0 0 0 0 0 0
0 0 0 0 0 0 0 0 0 0 0 0 3 6 6 0 0 3 3 0 0 0 3 6 3 3 0 0 0 0 0 0 0 0 0 0 0 0 0 0 0 0 0 0 0 0 0 0 0
0 0 0 0 0 0 0 0 0 0 0 0 3 6 6 3 0 0 0 0 0 3 3 6 6 0 0 0 0 0 0 0 0 0 0 0 0 0 0 0 0 0 0 0 0 0 0 0 0
0 0 0 0 0 0 0 0 0 0 0 0 0 3 0 3 0 0 0 0 0 3 3 3 3 0 0 0 0 0 0 0 0 0 0 0 0 0 0 0 0 0 0 0 0 0 0 0 0
Height
5903 5902 5901 5901 5901 5900 5898 5897 5895 5895 5895 5894 5894 5893 5892 5892 5893 5895 5893 5892 5892 5893 5893 5893 5893 5894 5894 5894 5894 5895 5896 5896 5897 5898 5899 5899 5899 5900 5900 5900 5901 5901 5901 5901 5901 5901 5901 5901 5901
5902 5901 5901 5900 5899 5898 5897 5895 5894 5893 5894 5893 5892 5891 5890 5890 5891 5891 5891 5891 5891 5892 5892 5893 5893 5893 5893 5893 5894 5894 5895 5896 5897 5897 5898 5899 5899 5899 5900 5900 5900 5901 5901 5901 5901 5901 5901 5901 5901
5900 5900 5900 5898 5897 5896 5895 5894 5893 5892 5892 5891 5890 5889 5889 5889 5889 5889 5889 5889 5890 5891 5891 5892 5892 5892 5892 5892 5893 5894 5894 5895 5896 5896 5897 5898 5898 5898 5899 5899 5900 5900 5900 5900 5900 5900 5900 5900 5900
5898 5898 5898 5897 5895 5894 5893 5893 5891 5890 5890 5889 5888 5887 5887 5887 5887 5887 5888 5888 5888 5889 5890 5890 5890 5891 5891 5892 5892 5893 5893 5894 5895 5895 5896 5896 5897 5897 5898 5898 5898 5899 5899 5899 5899 5900 5900 5900 5900
5896 5896 5895 5894 5892 5892 5891 5890 5889 5889 5888 5887 5886 5885 5884 5885 5884 5885 5886 5886 5887 5888 5888 5888 5889 5889 5890 5891 5891 5892 5892 5893 5894 5894 5895 5895 5896 5896 5896 5897 5897 5897 5898 5898 5898 5898 5899 5899 5899
5894 5893 5893 5891 5890 5889 5888 5888 5887 5886 5886 5885 5884 5883 5882 5882 5882 5882 5883 5884 5885 5886 5886 5886 5887 5887 5888 5889 5890 5891 5891 5892 5892 5893 5893 5894 5894 5894 5895 5895 5896 5896 5896 5896 5897 5897 5897 5898 5898
5892 5891 5889 5888 5887 5886 5886 5885 5884 5883 5883 5882 5881 5880 5879 5879 5879 5879 5880 5881 5882 5883 5884 5884 5885 5886 5886 5887 5888 5889 5889 5890 5891 5891 5892 5892 5892 5893 5893 5893 5893 5894 5894 5894 5894 5895 5895 5896 5896
5889 5889 5887 5886 5885 5884 5883 5882 5881 5881 5880 5879 5878 5877 5876 5876 5876 5876 5877 5878 5880 5880 5881 5882 5883 5884 5884 5885 5886 5887 5888 5888 5888 5889 5890 5890 5890 5890 5890 5890 5891 5891 5891 5892 5892 5892 5893 5894 5894
5887 5887 5884 5883 5882 5882 5880 5879 5879 5878 5876 5875 5874 5873 5872 5872 5873 5873 5874 5875 5876 5877 5878 5879 5880 5881 5882 5883 5884 5884 5885 5886 5886 5887 5887 5888 5888 5888 5888 5888 5888 5888 5888 5888 5889 5889 5890 5891 5891
5885 5884 5883 5882 5880 5879 5878 5876 5875 5874 5872 5871 5869 5868 5867 5867 5868 5869 5870 5871 5872 5873 5875 5876 5878 5879 5880 5881 5882 5882 5882 5883 5884 5884 5885 5885 5885 5885 5885 5885 5885 5885 5885 5885 5885 5886 5887 5888 5888
5882 5882 5881 5880 5878 5877 5875 5874 5872 5870 5868 5867 5865 5864 5862 5862 5862 5863 5865 5866 5867 5869 5871 5873 5875 5876 5878 5878 5879 5879 5880 5880 5881 5882 5882 5882 5883 5883 5883 5883 5882 5882 5882 5883 5883 5884 5885 5885 5886
5881 5880 5879 5878 5876 5875 5873 5871 5869 5867 5865 5863 5860 5858 5856 5856 5856 5856 5857 5860 5863 5865 5868 5870 5872 5874 5875 5876 5877 5877 5877 5878 5879 5879 5880 5880 5880 5880 5880 5880 5880 5880 5880 5880 5881 5881 5882 5883 5883
5879 5878 5877 5876 5874 5873 5871 5869 5866 5864 5861 5858 5855 5853 5850 5850 5850 5851 5852 5855 5858 5862 5865 5868 5870 5871 5872 5873 5874 5874 5875 5875 5876 5876 5877 5877 5878 5878 5877 5877 5877 5877 5877 5878 5878 5879 5879 5880 5880
5878 5877 5876 5874 5873 5871 5869 5866 5864 5861 5857 5854 5851 5848 5845 5845 5845 5847 5849 5851 5854 5858 5861 5864 5867 5869 5870 5871 5871 5872 5873 5873 5874 5874 5874 5875 5875 5875 5875 5875 5875 5875 5875 5875 5875 5876 5877 5877 5878
5876 5876 5875 5873 5871 5869 5867 5864 5861 5857 5854 5850 5847 5843 5842 5842 5842 5844 5846 5849 5852 5855 5858 5861 5864 5866 5868 5869 5870 5870 5871 5871 5871 5872 5872 5873 5873 5873 5873 5873 5873 5873 5873 5873 5873 5873 5874 5874 5875
5876 5875 5874 5872 5869 5867 5866 5861 5858 5854 5850 5847 5844 5841 5839 5840 5840 5841 5843 5846 5849 5852 5856 5859 5862 5864 5866 5867 5868 5868 5869 5869 5870 5870 5871 5871 5871 5872 5872 5872 5871 5871 5871 5871 5871 5871 5871 5871 5871
5874 5873 5872 5870 5867 5865 5862 5858 5855 5851 5848 5845 5842 5840 5838 5838 5839 5840 5842 5844 5848 5851 5854 5857 5860 5862 5864 5865 5866 5867 5867 5868 5868 5869 5869 5870 5870 5870 5870 5870 5869 5869 5869 5868 5868 5868 5868 5867 5867
5873 5872 5870 5868 5866 5863 5859 5856 5853 5849 5846 5843 5841 5839 5838 5838 5838 5839 5841 5844 5847 5850 5853 5856 5859 5861 5862 5864 5865 5865 5866 5866 5867 5867 5868 5868 5868 5868 5868 5868 5867 5867 5866 5866 5865 5865 5864 5864 5864
5871 5870 5868 5866 5863 5860 5857 5854 5851 5848 5845 5843 5841 5840 5839 5838 5839 5840 5842 5844 5847 5849 5852 5855 5858 5860 5861 5862 5863 5864 5865 5866 5866 5866 5866 5867 5867 5866 5866 5865 5865 5864 5864 5863 5863 5862 5861 5860 5860
5869 5868 5866 5864 5861 5859 5856 5853 5850 5847 5845 5843 5841 5840 5839 5838 5840 5841 5843 5845 5846 5848 5852 5855 5857 5858 5859 5861 5862 5864 5864 5865 5865 5865 5865 5865 5865 5865 5864 5864 5863 5862 5862 5861 5860 5859 5858 5857 5856
5867 5866 5864 5862 5859 5857 5855 5852 5849 5847 5845 5843 5842 5840 5840 5840 5841 5843 5844 5845 5847 5849 5852 5854 5856 5857 5859 5860 5862 5863 5864 5864 5864 5864 5864 5864 5863 5863 5862 5862 5861 5861 5860 5858 5857 5856 5854 5853 5852
5865 5864 5862 5860 5858 5856 5854 5852 5849 5847 5845 5844 5843 5842 5841 5841 5842 5844 5845 5846 5848 5850 5852 5854 5856 5857 5858 5860 5861 5862 5863 5863 5863 5864 5863 5863 5863 5862 5861 5860 5860 5859 5857 5856 5854 5853 5851 5849 5848
5863 5861 5860 5858 5856 5855 5853 5851 5850 5847 5846 5845 5844 5843 5843 5842 5843 5844 5846 5847 5849 5850 5852 5854 5855 5857 5858 5859 5860 5861 5862 5862 5862 5862 5862 5862 5861 5861 5860 5859 5858 5856 5855 5853 5851 5849 5847 5845 5843
5860 5859 5858 5857 5855 5855 5853 5851 5850 5848 5846 5846 5845 5845 5844 5844 5845 5845 5847 5848 5849 5851 5852 5854 5855 5857 5858 5859 5860 5860 5861 5861 5861 5861 5861 5861 5860 5859 5858 5857 5856 5854 5852 5850 5848 5846 5844 5841 5839
5859 5858 5857 5855 5854 5854 5852 5851 5851 5848 5847 5846 5846 5846 5846 5846 5846 5847 5848 5849 5850 5851 5852 5854 5855 5856 5857 5858 5859 5859 5860 5860 5860 5860 5859 5859 5858 5857 5856 5855 5853 5851 5849 5847 5845 5842 5840 5837 5835
5856 5856 5855 5854 5853 5852 5851 5850 5851 5848 5847 5846 5846 5846 5846 5847 5847 5848 5848 5849 5850 5851 5852 5854 5855 5856 5856 5857 5857 5858 5858 5859 5859 5858 5858 5857 5856 5855 5854 5852 5850 5848 5846 5844 5841 5838 5836 5833 5830
5853 5853 5853 5852 5851 5851 5850 5850 5850 5848 5847 5846 5846 5846 5846 5847 5847 5848 5849 5849 5850 5851 5852 5853 5854 5855 5855 5856 5856 5856 5857 5857 5857 5856 5856 5855 5854 5853 5851 5850 5847 5845 5843 5840 5837 5834 5831 5828 5825
5851 5851 5850 5850 5849 5848 5849 5848 5848 5847 5846 5846 5846 5845 5846 5846 5847 5847 5848 5849 5850 5850 5851 5852 5853 5853 5854 5854 5854 5855 5855 5855 5855 5854 5853 5852 5851 5850 5848 5846 5844 5841 5838 5836 5833 5830 5826 5823 5819
5848 5848 5847 5847 5846 5846 5846 5848 5846 5846 5845 5845 5845 5845 5845 5846 5846 5847 5847 5848 5849 5849 5850 5850 5851 5851 5851 5852 5852 5853 5853 5852 5852 5851 5850 5849 5848 5846 5844 5842 5839 5836 5834 5831 5827 5824 5820 5817 5813
5843 5844 5844 5844 5843 5843 5843 5847 5844 5844 5843 5843 5843 5843 5844 5844 5845 5845 5845 5846 5847 5847 5847 5848 5848 5849 5849 5850 5850 5850 5849 5849 5848 5847 5846 5845 5844 5842 5839 5837 5834 5831 5828 5825 5822 5818 5814 5810 5806
Wind_Speed
11 10 10 10 10 11 10 10 11 11 11 10 10 9 10 8 5 5 4 5 5 5 5 4 4 4 3 1 1 2 2 3 3 3 3 4 4 4 4 5 5 5 5 5 5 5 5 5 4
12 12 11 11 11 11 11 12 13 13 13 12 12 12 11 8 6 5 5 6 6 6 6 5 5 4 4 2 2 1 1 1 1 2 2 3 3 3 3 4 4 4 5 5 5 4 4 4 3
14 13 13 13 13 13 14 14 14 14 14 14 14 14 13 11 8 7 6 6 6 7 7 6 6 5 4 3 2 2 1 0 1 1 2 2 3 3 4 4 4 4 5 5 4 4 3 3 3
15 14 14 14 15 15 15 14 14 14 15 16 15 15 14 12 10 9 7 5 7 8 8 7 7 5 5 4 3 2 2 1 1 2 3 3 4 4 4 5 5 6 6 6 5 4 4 3 3
16 15 15 15 16 16 16 16 17 17 16 16 16 14 13 13 11 9 7 7 8 8 9 8 8 6 5 4 4 3 3 3 3 3 4 5 5 6 6 6 7 7 7 7 7 6 5 4 4
16 16 15 16 17 17 17 17 18 18 18 17 16 14 13 13 12 10 9 8 9 10 10 9 9 7 6 5 5 5 4 4 5 5 5 6 6 7 8 9 9 9 9 9 8 8 7 6 6
16 15 16 17 17 18 18 18 19 19 19 19 17 16 15 14 12 11 10 10 11 11 11 10 8 8 7 6 6 6 6 6 6 7 7 7 8 9 10 10 11 11 11 10 10 9 9 8 7
16 16 16 16 17 18 19 19 19 19 19 20 19 17 16 15 14 13 12 12 12 12 12 11 10 9 8 8 7 8 8 8 8 8 8 8 9 11 11 12 12 12 12 12 12 11 11 10 9
15 15 16 16 16 17 19 19 19 19 19 20 19 19 19 17 16 15 13 13 14 14 13 12 11 11 10 9 8 8 9 9 9 9 9 10 10 11 12 13 13 14 14 14 14 13 12 12 11
13 14 14 15 15 16 17 18 19 19 20 20 20 21 21 19 18 17 15 15 15 15 15 14 12 11 10 9 9 10 9 10 10 10 10 11 12 12 13 14 14 15 15 15 14 13 12 12 12
12 12 13 14 15 15 16 17 19 19 20 21 21 22 22 21 19 19 18 18 17 15 15 14 13 11 9 9 10 11 10 10 10 10 11 12 12 13 13 14 14 15 15 15 14 13 12 12 12
10 10 11 12 13 14 15 17 18 19 21 23 23 22 21 20 19 19 19 17 17 15 16 15 13 12 11 10 10 10 10 9 10 10 10 11 12 12 13 14 14 13 14 13 13 13 13 12 12
9 9 9 10 11 12 14 15 17 18 21 23 23 22 20 19 17 16 16 17 17 17 17 16 14 13 12 12 11 10 10 9 9 9 10 10 11 12 13 13 13 13 13 13 14 13 13 13 13
9 8 9 10 11 12 14 15 17 18 21 21 20 19 17 15 14 14 15 16 18 18 16 16 15 14 13 12 11 9 9 9 9 9 10 11 12 12 12 11 11 12 12 14 14 14 14 14 14
9 9 10 11 11 13 15 16 17 20 21 20 18 16 15 13 13 14 14 16 17 17 16 16 15 14 12 11 10 9 9 9 8 8 9 10 10 10 10 10 10 11 12 13 14 14 15 15 15
10 10 10 12 12 14 15 17 17 18 19 17 15 12 9 8 8 11 13 16 18 18 16 15 15 12 10 9 8 7 7 8 7 7 7 8 9 9 9 9 10 11 12 13 14 14 15 16 17
10 10 11 12 13 15 16 17 17 17 16 15 13 9 6 6 5 8 11 14 16 18 17 14 14 12 9 6 5 5 6 6 6 6 7 8 8 9 9 10 10 11 12 12 13 14 15 15 16
11 11 11 12 13 15 16 16 15 15 14 13 10 7 4 3 5 8 10 13 15 16 14 13 12 10 8 6 4 4 4 5 5 6 6 7 8 9 9 9 10 11 11 11 12 14 15 15 16
11 12 12 13 14 15 14 14 13 12 11 9 7 4 1 1 5 8 10 13 14 13 12 11 11 9 8 6 4 4 3 3 4 5 5 6 7 8 8 9 9 10 11 12 13 14 15 16 17
12 13 13 13 13 14 13 13 12 11 9 7 6 4 1 2 5 8 10 11 12 12 11 10 10 8 7 5 4 3 3 3 3 4 4 5 6 6 7 7 8 10 11 12 14 15 16 17 17
12 13 13 14 14 13 12 11 12 10 9 7 4 3 2 4 7 8 9 10 11 11 10 9 8 7 6 5 4 3 2 2 2 2 3 4 5 6 6 7 8 10 12 13 14 15 16 17 18
12 13 13 13 13 12 12 11 11 9 7 5 2 3 3 4 6 7 8 10 10 9 9 8 7 6 6 5 4 3 2 1 0 1 2 4 5 6 7 8 10 11 13 14 15 16 17 18 19
12 13 13 12 12 10 10 11 10 9 6 4 1 2 3 4 5 6 8 10 10 9 8 7 6 5 5 5 4 3 2 1 0 1 2 4 5 7 8 9 11 13 14 15 16 17 18 19 19
12 12 12 11 11 9 9 9 8 7 6 3 0 1 2 3 4 5 7 9 8 8 8 7 6 6 5 4 3 2 1 0 0 1 3 4 6 8 9 11 12 14 16 17 18 18 19 20 21
12 12 12 11 10 8 8 8 7 6 6 3 2 2 3 4 4 5 7 8 8 8 7 7 6 6 5 4 3 2 1 0 1 2 4 5 7 9 10 12 14 15 17 18 19 19 20 21 22
12 12 12 13 11 8 8 7 6 5 5 4 4 3 3 4 4 5 6 7 7 7 7 6 6 5 5 4 3 2 1 1 2 3 5 6 8 9 11 13 15 17 18 19 20 21 21 22 23
13 13 13 13 12 10 8 7 6 6 6 5 4 4 4 4 5 6 6 7 7 7 7 6 6 6 5 4 3 2 2 2 3 4 6 7 9 10 12 14 16 17 19 20 21 22 23 24 25
14 14 15 14 14 12 8 8 8 7 6 5 5 5 5 6 6 7 7 7 7 7 7 6 6 5 4 4 3 3 3 4 4 6 7 9 11 13 15 17 18 19 20 21 23 24 25 26 27
15 15 15 15 15 14 11 9 9 8 7 7 6 6 6 6 7 7 8 8 7 7 7 7 6 6 5 5 5 5 5 6 7 8 10 12 14 15 17 19 20 21 22 23 24 26 27 29 29
16 16 16 16 15 14 13 10 10 10 8 7 7 7 8 8 9 9 9 9 8 8 7 7 7 7 7 7 7 7 7 8 9 11 13 14 16 17 19 20 22 23 24 25 27 28 30 31 31
Wind_Direction
320 318 312 309 306 304 299 297 300 303 309 317 322 326 332 330 331 334 316 290 271 271 275 266 250 242 233 199 170 134 106 85 70 59 53 45 37 35 34 31 27 26 22 19 20 24 26 27 30
314 314 311 303 304 299 295 294 295 301 311 313 313 321 328 332 329 329 309 285 262 260 265 261 248 245 243 220 205 173 129 99 59 42 31 24 18 16 14 9 6 7 7 3 5 10 12 10 14
309 307 305 300 295 292 292 294 296 300 307 311 310 317 320 322 319 322 308 276 259 257 257 257 251 245 243 232 223 219 214 280 4 356 343 337 338 340 344 343 339 339 343 342 343 348 350 347 351
306 302 298 293 291 290 288 290 293 299 306 308 309 311 311 313 315 313 308 272 258 255 252 251 251 247 243 244 237 232 237 261 289 310 311 309 312 319 323 324 323 323 325 327 326 327 328 325 322
303 298 294 290 288 287 286 288 290 293 299 302 305 308 309 310 311 308 298 276 263 253 251 247 242 237 236 242 244 234 236 251 269 285 292 296 297 301 305 311 313 315 316 316 314 313 310 307 306
300 296 290 287 286 287 287 288 290 294 299 300 304 305 306 305 305 298 290 272 253 247 248 245 236 229 227 232 243 245 244 254 267 275 282 288 292 293 295 297 301 305 306 305 303 302 299 297 294
298 295 288 287 286 286 287 289 290 295 298 301 304 303 304 303 302 292 282 268 253 246 242 242 234 227 227 231 242 249 251 257 265 273 280 288 292 290 291 291 291 295 296 295 293 291 290 288 286
299 295 291 290 289 288 289 290 294 297 298 300 300 300 298 297 294 284 275 265 250 243 239 239 235 232 231 236 241 246 253 257 263 269 280 287 291 289 287 286 286 289 290 287 285 285 282 280 278
302 296 295 294 292 292 293 293 294 296 297 298 297 297 296 292 290 282 273 263 249 243 232 233 230 229 230 237 242 245 254 258 259 263 270 279 286 288 286 284 284 284 286 282 279 279 281 277 276
303 299 299 297 296 295 296 296 296 296 298 298 297 297 294 290 284 278 268 260 251 241 233 234 225 224 225 234 243 252 257 257 257 262 268 274 280 286 287 285 284 283 283 282 279 280 284 280 276
304 300 298 298 299 298 298 299 300 301 300 299 297 296 290 285 281 274 263 251 244 235 229 225 221 221 228 237 247 254 254 253 257 264 271 275 279 285 288 286 285 286 284 281 279 280 280 279 276
299 301 304 306 304 302 301 302 305 305 303 299 296 292 286 280 274 265 250 242 237 227 223 216 215 221 231 240 251 258 251 253 259 264 273 277 278 283 285 284 284 283 285 282 280 277 278 278 276
302 310 315 313 308 308 310 311 311 307 305 300 297 291 283 273 264 250 240 226 223 216 213 214 217 225 232 241 251 257 251 254 255 261 270 278 279 285 287 286 283 280 281 283 282 280 278 281 280
307 312 316 315 316 318 319 317 316 312 310 306 300 293 283 273 258 244 230 220 207 205 206 212 218 225 231 238 245 247 252 257 258 264 270 275 281 288 292 290 284 282 281 282 281 277 275 278 279
308 310 313 317 321 325 325 323 318 315 315 313 308 300 279 267 255 237 218 207 204 203 205 208 214 223 231 239 240 248 256 258 263 267 272 278 283 288 292 295 292 284 281 283 281 278 278 276 276
307 309 311 319 324 324 324 324 321 319 318 322 318 312 283 268 248 223 212 205 205 201 200 203 211 217 223 230 234 245 249 257 266 273 277 280 285 289 295 298 297 291 287 285 284 283 282 278 275
304 309 311 314 322 324 325 324 324 324 323 324 324 316 294 270 240 207 203 198 196 196 196 200 207 206 209 212 222 237 242 251 265 276 285 287 290 292 294 296 297 296 293 290 288 287 286 284 280
302 307 314 319 323 324 326 326 323 325 327 326 329 328 315 248 211 191 187 189 191 191 191 191 195 194 195 202 217 232 236 249 264 281 294 296 299 299 298 301 305 304 304 301 296 293 292 290 287
298 305 313 321 325 330 332 331 327 327 330 330 334 337 342 165 170 172 176 180 183 181 182 191 194 194 198 206 217 231 251 265 282 296 303 303 306 308 308 311 314 312 311 309 304 300 298 295 293
299 304 312 319 325 328 330 332 332 332 333 336 344 359 37 121 142 160 166 176 177 178 182 185 189 195 199 201 207 217 244 267 287 300 304 308 313 316 316 320 321 319 317 314 312 308 304 300 297
301 309 312 317 322 325 328 331 336 334 332 334 343 10 72 121 130 133 149 157 168 174 178 185 187 186 192 194 196 209 225 257 298 318 331 335 339 336 335 337 333 328 325 320 315 313 309 304 301
300 308 309 310 317 325 330 335 337 338 337 341 7 61 95 133 137 139 149 156 163 169 174 175 174 179 183 183 189 200 207 222 280 339 347 348 353 347 343 339 336 333 329 325 321 317 314 310 305
298 306 308 308 312 317 327 335 337 339 341 349 46 81 99 127 140 150 157 162 165 164 165 165 166 167 170 170 173 176 183 191 285 353 358 353 349 347 344 341 340 338 335 331 327 324 320 316 311
297 303 304 305 307 310 322 330 336 337 338 345 180 152 145 140 136 151 164 167 163 160 159 160 165 167 168 167 168 175 174 171 349 357 356 349 345 344 342 340 338 336 334 330 326 323 321 319 315
294 301 305 305 304 302 304 313 323 329 321 309 257 192 163 161 163 159 162 167 165 162 163 166 169 171 171 171 171 174 171 328 340 341 340 340 339 340 339 339 337 336 334 332 329 326 323 321 318
288 293 298 302 304 295 287 299 309 316 320 298 266 231 195 184 180 173 170 172 172 173 173 174 175 176 177 179 179 192 228 291 320 329 333 334 334 335 335 336 336 335 334 332 331 329 326 323 320
283 285 291 295 298 297 289 280 289 298 304 297 269 247 234 214 202 195 190 186 182 182 182 181 183 184 187 193 204 229 256 283 304 317 324 327 326 326 326 328 330 331 331 330 330 329 327 324 323
276 280 285 290 295 291 284 279 277 281 286 281 273 254 243 229 217 208 202 194 190 191 191 192 195 199 205 215 231 246 260 279 293 305 313 317 318 320 321 322 323 325 327 327 327 327 326 324 323
272 278 283 284 291 288 279 276 269 268 274 271 264 258 248 238 224 218 214 210 208 206 205 208 212 216 224 232 243 254 268 283 292 299 306 309 313 317 318 320 321 322 323 323 323 324 324 324 322
270 276 282 282 285 285 280 272 265 261 266 266 259 254 246 240 234 230 226 223 223 222 223 227 230 232 236 244 253 263 274 283 291 298 303 306 310 313 316 318 319 320 321 321 322 322 322 322 322